Location: Shades State Park
(39.9310°N, 87.0690°W)
Time: 00:59:48
(UTC-05:00)

Daily predictions for brighter satellites

Satellite Brightness Start Highest point End
(mag) Time Altitude Azimuth Time Altitude Azimuth Time Altitude Azimuth
CZ-3 R/B 4.4 02:03:25 10° WSW 03:05:09 56° SSE 03:16:16 10° ESE
Cosmos 1980 Rocket 3.8 04:12:53 30° E 04:12:53 30° E 04:16:55 10° NE
ATLAS 5 CENTAUR R/B 4.4 04:18:04 13° ESE 04:18:04 13° ESE 04:20:08 10° E
SJ 16-02 3.3 04:39:17 26° ENE 04:39:17 26° ENE 04:41:43 10° NE
Cosmos 1697 Rocket 3.7 04:43:04 39° NNE 04:43:04 39° NNE 04:46:32 10° NNE
Cosmos 1125 Rocket 4.5 04:46:13 41° ESE 04:46:45 42° ESE 04:51:38 10° NNE
USA 215 3.7 04:40:20 10° SE 04:45:00 48° SSE 04:45:00 48° SSE
Cosmos 2239 Rocket 4.5 04:48:01 78° ENE 04:48:01 78° ENE 04:54:04 10° N
SL-16 R/B 4.4 04:45:26 10° SSE 04:49:36 21° E 04:53:47 10° NE
Hubble Space Telescope 3.7 04:53:32 10° SE 04:53:32 10° SE 04:53:38 10° SE
COSMOS 2455 3.3 05:07:45 12° NNW 05:13:18 60° ENE 05:19:14 10° SE
ADEOS II 4.2 05:09:56 10° N 05:10:56 15° NNW 05:10:56 15° NNW
Cosmos 1707 Rocket 4.2 05:17:09 48° N 05:17:09 48° N 05:20:23 10° N
CZ-4B R/B 3.2 05:12:27 10° NNE 05:17:57 79° ESE 05:21:44 21° S
Cosmos 468 4.3 05:18:01 35° NNW 05:20:19 88° WSW 05:25:33 10° SSE
CZ-4B R/B 4.0 05:19:46 10° NNE 05:24:11 84° ESE 05:24:24 79° SSE
Cosmos 2263 Rocket 3.8 05:22:56 10° N 05:28:02 33° ENE 05:33:07 10° ESE
IRS-1C Rocket 4.2 05:23:37 10° NNE 05:28:55 77° ESE 05:34:10 10° S
Meteor 2-10 Rocket 3.9 05:30:12 42° NW 05:30:12 42° NW 05:33:56 10° N
Lacrosse 5 rocket 3.6 05:34:29 14° S 05:34:29 14° S 05:35:09 10° S
Cosmos 1934 Rocket 3.9 05:28:36 26° SSW 05:32:16 64° W 05:38:37 10° N
Cosmos 1269 Rocket 4.2 05:29:49 10° NNW 05:35:06 72° ENE 05:40:21 10° SSE
Cosmos 405 Rocket 3.3 05:33:40 10° S 05:37:32 57° E 05:41:22 10° NNE
Cosmos 2360 4.3 05:36:34 47° W 05:37:33 52° WNW 05:43:09 10° NNE
CZ-4B DEB 4.2 05:32:43 10° N 05:38:07 60° WNW 05:40:30 33° SW
Okean O Rocket 2.1 05:34:58 10° N 05:38:28 42° NW 05:38:28 42° NW
SKYMED 2 4.5 05:39:44 10° SSE 05:43:54 49° ENE 05:48:06 10° N
Cosmos 2322 Rocket 2.6 05:40:29 10° S 05:46:05 64° ESE 05:51:43 10° NNE
Cosmos 2123 Rocket 4.0 05:42:53 10° NNW 05:48:58 57° W 05:55:05 10° SSW
Cosmos 158 Rocket 4.3 05:48:57 40° W 05:49:20 40° WSW 05:54:09 10° S
PAYLOAD A 4.4 05:45:24 10° NNE 05:50:11 60° E 05:55:06 10° S
Cosmos 405 2.8 05:48:46 10° NNW 05:52:21 80° W 05:55:55 10° S
NOAA 6 4.3 05:48:13 10° NNE 05:53:23 69° ESE 05:58:29 10° S
Cosmos 2360 Rocket 4.2 05:49:02 10° SSE 05:53:52 30° ESE 05:58:44 10° NE
Cosmos 1980 Rocket 2.8 05:54:42 32° W 05:55:52 35° WNW 06:01:02 10° N
Cosmos 2227 4.1 05:52:53 10° NNW 05:58:27 62° WSW 06:03:57 10° S
ATLAS 5 CENTAUR R/B 1.7 05:59:39 29° SW 06:01:54 64° NW 06:06:49 10° NNE
Cosmos 2242 Rocket 3.5 05:57:54 10° SSW 06:02:27 70° W 06:07:03 10° N
Milstar 3 Cent rocket 4.5 05:59:30 10° SSW 06:03:52 21° SSE 06:10:08 10° ESE
EXPRESS MD2 4.0 06:02:48 25° NW 06:05:14 85° NNE 06:13:17 10° SE
Cosmos 1153 Rocket 4.4 06:05:47 10° SSW 06:11:52 68° W 06:18:03 10° N
Cosmos 1048 Rocket 4.4 06:07:15 10° NW 06:11:59 38° WSW 06:16:41 10° S
SJ 16-02 2.7 06:16:19 20° WNW 06:16:21 20° WNW 06:19:39 10° NNW
Aureole 2 Rocket 4.0 06:14:11 10° SSE 06:16:34 28° ESE 06:18:58 10° NE
Cosmos 1908 Rocket 4.2 06:12:23 10° N 06:16:44 59° E 06:21:00 10° SSE
Cosmos 1441 Rocket 3.6 06:13:10 10° SSW 06:16:59 44° WNW 06:20:50 10° N
IDEFIX/ARIANE 42P 2.5 06:12:50 10° N 06:18:03 71° WNW 06:23:12 10° SSW
Cosmos 1900 4.4 06:13:32 10° SW 06:18:37 64° WNW 06:23:40 10° NNE
Cosmos 1733 Rocket 3.2 06:15:30 10° NNW 06:19:44 49° W 06:23:59 10° SSW
Cosmos 1862 Rocket 3.7 06:18:10 10° SSW 06:22:22 48° W 06:26:39 10° N
Cosmos 2251 Rocket 4.3 06:17:18 10° N 06:22:31 55° ENE 06:27:43 10° SE
GENESIS II 4.3 06:18:58 10° SSW 06:22:52 79° ESE 06:26:48 10° NE
Cosmos 1697 Rocket 4.4 06:24:49 13° WNW 06:25:45 13° NW 06:28:21 10° NNW
USA 229 DEB 4.3 06:19:58 10° NNW 06:27:08 63° NE 06:34:27 10° SE
Meteor 1-31 Rocket 4.4 06:24:46 10° NNW 06:26:53 16° WNW 06:26:53 16° WNW
USA 229 4.3 06:20:05 10° NNW 06:27:14 63° NE 06:34:32 10° SE
MTI 3.6 06:26:55 10° S 06:30:04 65° WSW 06:33:14 10° NNW
Hubble Space Telescope 3.0 06:29:16 10° SW 06:31:34 14° S 06:33:50 10° SSE
COSMOS 2441 4.4 06:26:52 10° NNE 06:31:48 89° ESE 06:36:43 10° SSW
Okean 1-7 4.0 06:27:40 10° S 06:31:50 51° E 06:36:04 10° NNE
COSMO-SKYMED 1 2.8 06:27:50 10° S 06:31:59 46° W 06:36:11 10° NNW
SL-16 R/B 2.4 06:27:46 10° SW 06:33:17 51° WNW 06:38:48 10° NNE
Cosmos 1782 2.7 06:35:24 10° SSW 06:39:25 72° W 06:43:27 10° N
Okean-O 2.8 06:35:19 10° N 06:39:36 48° WNW 06:43:51 10° SSW
MSX 3.8 06:34:54 10° N 06:40:40 74° WNW 06:46:25 10° SSW
CZ-2C R/B 2.5 06:36:21 10° N 06:41:24 61° WNW 06:46:30 10° SSW
BREEZE-M DEB (TANK) 3.5 06:42:19 13° WSW 06:43:05 14° SW 06:44:23 10° SSW
BREEZE M DEB (TANK) 3.9 06:45:04 10° N 06:45:45 11° N 06:46:30 10° NNE
Aureole 3 3.6 06:45:48 10° NNW 06:48:24 27° W 06:51:11 10° SSW
CZ-3 R/B 3.4 06:35:27 11° W 06:48:57 30° SW 06:54:13 10° SSE
CZ-4 R/B 3.7 06:48:00 10° NE 06:51:22 28° E 06:54:44 10° SSE
Cosmos 2100 Rocket 4.1 06:45:59 10° SSW 06:51:57 52° W 06:57:57 10° N
Cosmos 1606 3.1 06:48:40 10° SSW 06:52:15 39° W 06:55:50 10° N
Geosat 4.0 06:49:26 10° SSE 06:54:28 81° WSW 06:59:31 10° NNW
SJ-12 4.0 06:52:27 10° N 06:56:32 57° WNW 07:00:34 10° SSW
COSMOS 2455 4.0 06:54:20 10° WNW 06:58:42 21° WSW 07:03:03 10° SSW
Cosmos 1633 3.4 06:55:34 10° NNW 06:58:46 29° W 07:01:57 10° SSW
Cosmos 1437 Rocket 3.0 06:57:43 10° NNW 07:01:39 50° W 07:05:28 10° S
CSL-04 Rocket 4.3 07:00:44 10° NNE 07:06:00 64° ESE 07:11:18 10° S
